EW9411 Weather Reports


time (UTC)temp
C
wind
direction
speed
KPH
gust
KPH
rain 1hr
cm
rain 24hr
cm
rain mn
cm
humidity
%
barometer
mb
20210920045719 14 5 3.2 6.4 0.00 0.00 0.00 88 1023.6
20210920045515 14 5 3.2 6.4 0.00 0.00 0.00 88 1023.6
20210920045226 14 5 3.2 6.4 0.00 0.00 0.00 88 1023.6
20210920045023 14 5 3.2 6.4 0.00 0.00 0.00 88 1023.6
20210920044714 14 5 3.2 4.8 0.00 0.00 0.00 88 1023.6
20210920044510 14 5 1.6 3.2 0.00 0.00 0.00 88 1023.6
20210920044226 14 5 1.6 3.2 0.00 0.00 0.00 87 1023.7
20210920044018 14 5 1.6 3.2 0.00 0.00 0.00 87 1023.7
20210920043714 14 5 1.6 4.8 0.00 0.00 0.00 87 1023.7
20210920043526 15 5 1.6 4.8 0.00 0.00 0.00 87 1023.7
20210920043221 15 5 1.6 4.8 0.00 0.00 0.00 87 1023.7
20210920043014 15 5 3.2 4.8 0.00 0.00 0.00 87 1023.7
20210920042709 15 5 3.2 4.8 0.00 0.00 0.00 88 1023.6
20210920042521 14 5 1.6 3.2 0.00 0.00 0.00 88 1023.7
20210920042217 14 5 1.6 3.2 0.00 0.00 0.00 88 1023.7
20210920042010 14 5 1.6 3.2 0.00 0.00 0.00 88 1023.7
20210920041725 14 5 1.6 3.2 0.00 0.00 0.00 88 1023.7
20210920041521 14 5 1.6 3.2 0.00 0.00 0.00 89 1023.5
20210920041212 14 5 1.6 4.8 0.00 0.00 0.00 89 1023.6
20210920041009 14 5 1.6 4.8 0.00 0.00 0.00 89 1023.6
20210920040720 14 5 3.2 4.8 0.00 0.00 0.00 89 1023.5
20210920040517 14 5 0.0 0.0 0.00 0.00 0.00 88 1023.5
20210920040227 14 5 0.0 0.0 0.00 0.00 0.00 88 1023.6
20210920040023 14 5 0.0 0.0 0.00 0.00 0.00 88 1023.5
20210920035719 14 5 0.0 0.0 0.00 0.00 0.00 88 1023.5
20210920035511 14 5 0.0 0.0 0.00 0.00 0.00 88 1023.5
20210920035226 14 5 0.0 3.2 0.00 0.00 0.00 88 1023.5
20210920035019 14 5 0.0 3.2 0.00 0.00 0.00 88 1023.5
20210920034714 14 5 0.0 3.2 0.00 0.00 0.00 87 1023.5
20210920034526 14 5 1.6 3.2 0.00 0.00 0.00 87 1023.4
20210920034221 15 5 1.6 3.2 0.00 0.00 0.00 87 1023.4
20210920034013 15 5 1.6 3.2 0.00 0.00 0.00 87 1023.4
20210920033709 15 5 0.0 4.8 0.00 0.00 0.00 87 1023.4
20210920033522 15 5 0.0 4.8 0.00 0.00 0.00 87 1023.4
20210920033217 15 5 1.6 4.8 0.00 0.00 0.00 87 1023.4
20210920033014 15 5 3.2 4.8 0.00 0.00 0.00 87 1023.4
20210920032725 15 5 1.6 3.2 0.00 0.00 0.00 87 1023.3
20210920032521 15 5 1.6 3.2 0.00 0.00 0.00 87 1023.3
20210920032212 15 5 1.6 4.8 0.00 0.00 0.00 87 1023.2
20210920032009 15 5 1.6 4.8 0.00 0.00 0.00 87 1023.2
20210920031720 15 5 3.2 4.8 0.00 0.00 0.00 87 1023.2
20210920031517 15 5 3.2 4.8 0.00 0.00 0.00 87 1023.2
20210920031212 15 5 3.2 6.4 0.00 0.00 0.00 87 1023.1
20210920031025 15 5 3.2 6.4 0.00 0.00 0.00 87 1023.1
20210920030720 15 5 3.2 6.4 0.00 0.00 0.00 87 1023.1
20210920030512 15 5 3.2 6.4 0.00 0.00 0.00 87 1023.0
20210920030208 15 5 3.2 6.4 0.00 0.00 0.00 87 1023.0
20210920030021 15 5 3.2 6.4 0.00 0.00 0.00 87 1023.0
20210920025716 15 5 4.8 6.4 0.00 0.00 0.00 87 1023.0
20210920025508 15 5 3.2 6.4 0.00 0.00 0.00 87 1023.0
20210920025224 16 5 4.8 6.4 0.00 0.00 0.00 87 1022.9
20210920025016 16 4 3.2 6.4 0.00 0.00 0.00 86 1022.9
20210920024711 16 4 3.2 6.4 0.00 0.00 0.00 86 1022.9
20210920024524 16 6 3.2 6.4 0.00 0.00 0.00 86 1022.9
20210920024219 16 6 3.2 6.4 0.00 0.00 0.00 87 1022.9
20210920024016 16 5 3.2 6.4 0.00 0.00 0.00 87 1022.9
20210920023727 16 10 4.8 8.0 0.00 0.00 0.00 87 1022.8
20210920023523 15 10 3.2 9.7 0.00 0.00 0.00 87 1022.8
20210920023215 15 11 4.8 9.7 0.00 0.00 0.00 86 1022.8
20210920023011 15 11 4.8 9.7 0.00 0.00 0.00 86 1022.7
20210920022723 15 6 4.8 8.0 0.00 0.00 0.00 86 1022.8
20210920022519 16 2 4.8 8.0 0.00 0.00 0.00 86 1022.7
20210920022213 16 6 4.8 6.4 0.00 0.00 0.00 85 1022.6
20210920022026 16 7 4.8 8.0 0.00 0.00 0.00 85 1022.6
20210920021742 16 8 4.8 9.7 0.00 0.00 0.00 85 1022.6
20210920021514 16 3 4.8 9.7 0.00 0.00 0.00 85 1022.6
20210920021209 16 1 3.2 9.7 0.00 0.00 0.00 84 1022.6
20210920021021 16 1 4.8 9.7 0.00 0.00 0.00 83 1022.6
20210920020716 16 11 4.8 9.7 0.00 0.00 0.00 83 1022.5
20210920020529 16 9 4.8 9.7 0.00 0.00 0.00 83 1022.5
20210920020224 16 8 4.8 9.7 0.00 0.00 0.00 84 1022.5
20210920020016 16 4 4.8 9.7 0.00 0.00 0.00 85 1022.5
20210920015711 16 351 3.2 9.7 0.00 0.00 0.00 84 1022.4
20210920015524 16 351 4.8 9.7 0.00 0.00 0.00 84 1022.4
20210920015240 16 351 4.8 9.7 0.00 0.00 0.00 84 1022.4
20210920015011 16 351 3.2 6.4 0.00 0.00 0.00 84 1022.4
20210920014727 16 351 4.8 6.4 0.00 0.00 0.00 84 1022.3
20210920014523 16 351 4.8 6.4 0.00 0.00 0.00 84 1022.3
20210920014214 16 351 3.2 4.8 0.00 0.00 0.00 84 1022.3
20210920014011 16 351 3.2 4.8 0.00 0.00 0.00 84 1022.3
20210920013722 16 351 3.2 4.8 0.00 0.00 0.00 83 1022.2
20210920013519 16 351 3.2 4.8 0.00 0.00 0.00 82 1022.3
20210920013210 16 351 3.2 4.8 0.00 0.00 0.00 82 1022.2
20210920013027 16 351 3.2 4.8 0.00 0.00 0.00 82 1022.3
20210920012722 16 351 3.2 4.8 0.00 0.00 0.00 81 1022.3
20210920012514 16 351 3.2 4.8 0.00 0.00 0.00 82 1022.2
20210920012209 16 351 3.2 4.8 0.00 0.00 0.00 82 1022.2
20210920012021 16 351 3.2 4.8 0.00 0.00 0.00 83 1022.3
20210920011737 16 351 3.2 4.8 0.00 0.00 0.00 83 1022.2
20210920011528 16 351 3.2 4.8 0.00 0.00 0.00 83 1022.2
20210920011223 16 351 3.2 4.8 0.00 0.00 0.00 83 1022.1
20210920011016 16 351 3.2 4.8 0.00 0.00 0.00 83 1022.1
20210920010710 16 351 3.2 4.8 0.00 0.00 0.00 83 1022.0
20210920010523 16 351 3.2 4.8 0.00 0.00 0.00 83 1022.0
20210920010217 16 351 3.2 4.8 0.00 0.00 0.00 83 1022.0
20210920010009 16 351 3.2 4.8 0.00 0.00 0.00 82 1022.0
20210920005724 16 351 3.2 4.8 0.00 0.00 0.00 83 1022.0
20210920005517 16 351 3.2 4.8 0.00 0.00 0.00 83 1021.9
20210920005212 16 351 1.6 4.8 0.00 0.00 0.00 82 1021.9
20210920005009 16 351 3.2 4.8 0.00 0.00 0.00 83 1021.9
20210920004720 16 351 0.0 0.0 0.00 0.00 0.00 82 1022.0
20210920004537 16 351 0.0 0.0 0.00 0.00 0.00 82 1021.9
20210920004247 16 351 0.0 0.0 0.00 0.00 0.00 82 1021.9
20210920004023 16 351 0.0 0.0 0.00 0.00 0.00 81 1021.8
20210920003714 17 351 0.0 0.0 0.00 0.00 0.00 82 1021.8
20210920003511 17 351 0.0 0.0 0.00 0.00 0.00 81 1021.7
20210920003243 17 351 0.0 0.0 0.00 0.00 0.00 81 1021.7
20210920003018 17 351 0.0 0.0 0.00 0.00 0.00 80 1021.7
20210920002709 17 351 0.0 0.0 0.00 0.00 0.00 80 1021.7
20210920002526 17 351 0.0 0.0 0.00 0.00 0.00 79 1021.7
20210920002221 17 351 0.0 0.0 0.00 0.00 0.00 79 1021.7
20210920002013 17 351 0.0 0.0 0.00 0.00 0.00 80 1021.7
20210920001709 17 351 0.0 0.0 0.00 0.00 0.00 80 1021.6
20210920001521 17 351 0.0 0.0 0.00 0.00 0.00 80 1021.6
20210920001216 17 351 0.0 0.0 0.00 0.00 0.00 79 1021.5
20210920001009 17 351 0.0 0.0 0.00 0.00 0.00 79 1021.5
20210920000724 17 351 0.0 1.6 0.00 0.00 0.00 79 1021.4
20210920000517 17 351 0.0 1.6 0.00 0.00 0.00 78 1021.4
20210920000212 17 351 0.0 3.2 0.00 0.00 0.00 77 1021.3
20210920000025 17 351 0.0 3.2 0.00 0.00 0.00 77 1021.3
20210919235720 17 351 0.0 3.2 0.00 0.00 0.00 77 1021.3
20210919235516 17 351 0.0 3.2 0.00 0.00 0.00 77 1021.2
20210919235225 18 351 1.6 3.2 0.00 0.00 0.00 77 1021.2
20210919235021 18 351 1.6 3.2 0.00 0.00 0.00 77 1021.1
20210919234712 17 351 3.2 4.8 0.00 0.00 0.00 77 1021.0
20210919234509 17 351 1.6 4.8 0.00 0.00 0.00 77 1021.0
20210919234220 17 351 3.2 4.8 0.00 0.00 0.00 75 1021.0
20210919234017 17 351 1.6 3.2 0.00 0.00 0.00 75 1021.0
20210919233712 18 351 0.0 0.0 0.00 0.00 0.00 74 1020.9
20210919233544 18 351 0.0 0.0 0.00 0.00 0.00 73 1020.9
20210919233219 18 351 0.0 0.0 0.00 0.00 0.00 72 1020.8
20210919233011 18 351 0.0 0.0 0.00 0.00 0.00 72 1020.8
20210919232727 18 351 0.0 0.0 0.00 0.00 0.00 72 1020.8
20210919232519 18 351 0.0 0.0 0.00 0.00 0.00 71 1020.8
20210919232235 18 351 0.0 1.6 0.00 0.00 0.00 71 1020.7
20210919232027 18 351 0.0 1.6 0.00 0.00 0.00 71 1020.7
20210919231804 18 351 0.0 1.6 0.00 0.00 0.00 71 1020.7
20210919231514 19 351 0.0 1.6 0.00 0.00 0.00 70 1020.8
20210919231209 19 351 0.0 1.6 0.00 0.00 0.00 69 1020.7
20210919231022 19 351 0.0 0.0 0.00 0.00 0.00 68 1020.7
20210919230738 19 351 0.0 0.0 0.00 0.00 0.00 68 1020.7
20210919230510 20 351 0.0 0.0 0.00 0.00 0.00 67 1020.8
20210919230225 20 351 0.0 3.2 0.00 0.00 0.00 66 1020.8
20210919230017 20 351 0.0 3.2 0.00 0.00 0.00 65 1020.7
20210919225713 20 351 0.0 3.2 0.00 0.00 0.00 64 1020.8
20210919225545 20 351 1.6 3.2 0.00 0.00 0.00 65 1020.7
20210919225219 20 351 0.0 3.2 0.00 0.00 0.00 65 1020.7
20210919225012 20 351 1.6 3.2 0.00 0.00 0.00 65 1020.7
20210919224727 21 351 1.6 3.2 0.00 0.00 0.00 64 1020.7
20210919224524 21 351 1.6 3.2 0.00 0.00 0.00 63 1020.7
20210919224215 21 351 1.6 3.2 0.00 0.00 0.00 62 1020.7
20210919224012 21 351 1.6 3.2 0.00 0.00 0.00 61 1020.6
20210919223723 22 351 1.6 3.2 0.00 0.00 0.00 59 1020.6
20210919223520 22 351 0.0 1.6 0.00 0.00 0.00 59 1020.6
20210919223211 22 351 0.0 3.2 0.00 0.00 0.00 57 1020.5
20210919223028 22 351 0.0 3.2 0.00 0.00 0.00 56 1020.5
20210919222723 22 351 1.6 3.2 0.00 0.00 0.00 57 1020.5
20210919222536 22 351 1.6 3.2 0.00 0.00 0.00 56 1020.5
20210919222210 22 351 0.0 1.6 0.00 0.00 0.00 53 1020.5
20210919222022 23 351 0.0 1.6 0.00 0.00 0.00 51 1020.5
20210919221718 23 351 0.0 1.6 0.00 0.00 0.00 49 1020.5
20210919221510 23 351 0.0 1.6 0.00 0.00 0.00 49 1020.5
20210919221226 23 351 0.0 4.8 0.00 0.00 0.00 49 1020.5
20210919221018 23 351 0.0 4.8 0.00 0.00 0.00 48 1020.5
20210919220714 23 351 1.6 4.8 0.00 0.00 0.00 48 1020.5
20210919220526 23 351 3.2 4.8 0.00 0.00 0.00 47 1020.5
20210919220222 23 351 0.0 8.0 0.00 0.00 0.00 47 1020.5
20210919220054 23 351 1.6 8.0 0.00 0.00 0.00 46 1020.4
20210919215728 23 351 4.8 8.0 0.00 0.00 0.00 44 1020.4
20210919215520 23 346 1.6 6.4 0.00 0.00 0.00 46 1020.4
20210919215215 24 346 3.2 8.0 0.00 0.00 0.00 45 1020.5
20210919215011 24 346 1.6 8.0 0.00 0.00 0.00 45 1020.4
20210919214723 24 346 3.2 8.0 0.00 0.00 0.00 44 1020.4
20210919214519 24 346 4.8 8.0 0.00 0.00 0.00 44 1020.4
20210919214210 25 333 3.2 8.0 0.00 0.00 0.00 44 1020.4
20210919214027 25 333 3.2 8.0 0.00 0.00 0.00 42 1020.4
20210919213718 25 329 3.2 8.0 0.00 0.00 0.00 43 1020.4
20210919213515 25 322 4.8 8.0 0.00 0.00 0.00 41 1020.4
20210919213209 25 360 4.8 9.7 0.00 0.00 0.00 41 1020.3
20210919213021 25 351 4.8 9.7 0.00 0.00 0.00 44 1020.3
20210919212717 25 28 4.8 9.7 0.00 0.00 0.00 45 1020.3
20210919212509 25 19 3.2 9.7 0.00 0.00 0.00 46 1020.3
20210919212246 25 356 1.6 9.7 0.00 0.00 0.00 45 1020.3
20210919212017 25 356 3.2 14.5 0.00 0.00 0.00 45 1020.3
20210919211713 25 10 6.4 14.5 0.00 0.00 0.00 44 1020.3
20210919211525 25 12 3.2 14.5 0.00 0.00 0.00 45 1020.2
20210919211220 25 4 4.8 14.5 0.00 0.00 0.00 46 1020.2
20210919211013 25 346 3.2 8.0 0.00 0.00 0.00 46 1020.2
20210919210708 25 21 3.2 9.7 0.00 0.00 0.00 46 1020.2
20210919210521 25 338 3.2 9.7 0.00 0.00 0.00 46 1020.2
20210919210216 25 32 3.2 9.7 0.00 0.00 0.00 45 1020.1
20210919210013 25 360 4.8 14.5 0.00 0.00 0.00 45 1020.2
20210919205744 25 13 4.8 14.5 0.00 0.00 0.00 46 1020.1
20210919205519 25 2 6.4 14.5 0.00 0.00 0.00 44 1020.2
20210919205211 25 14 4.8 12.9 0.00 0.00 0.00 46 1020.1
20210919205027 25 3 3.2 14.5 0.00 0.00 0.00 45 1020.2
20210919204719 25 19 4.8 14.5 0.00 0.00 0.00 48 1020.2
20210919204536 25 356 4.8 14.5 0.00 0.00 0.00 47 1020.2
20210919204226 25 356 6.4 17.7 0.00 0.00 0.00 47 1020.3
20210919204023 25 11 3.2 17.7 0.00 0.00 0.00 49 1020.2
20210919203734 25 42 6.4 19.3 0.00 0.00 0.00 48 1020.2
20210919203510 25 8 6.4 19.3 0.00 0.00 0.00 47 1020.2
20210919203242 25 20 4.8 19.3 0.00 0.00 0.00 47 1020.2
20210919203018 25 315 4.8 19.3 0.00 0.00 0.00 49 1020.3
20210919202712 25 333 3.2 12.9 0.00 0.00 0.00 49 1020.2
20210919202546 25 332 3.2 14.5 0.00 0.00 0.00 50 1020.2
20210919202221 24 6 4.8 16.1 0.00 0.00 0.00 50 1020.2
20210919202013 24 351 8.0 16.1 0.00 0.00 0.00 51 1020.3
20210919201708 24 13 6.4 16.1 0.00 0.00 0.00 49 1020.2
20210919201521 25 16 8.0 16.1 0.00 0.00 0.00 48 1020.3
20210919201237 25 346 1.6 9.7 0.00 0.00 0.00 48 1020.3
20210919201028 25 346 3.2 9.7 0.00 0.00 0.00 49 1020.3
20210919200724 25 351 4.8 12.9 0.00 0.00 0.00 51 1020.3
20210919200516 24 356 1.6 12.9 0.00 0.00 0.00 50 1020.3
20210919200211 24 351 6.4 12.9 0.00 0.00 0.00 48 1020.3
20210919200024 25 360 6.4 12.9 0.00 0.00 0.00 49 1020.3
20210919195719 25 6 3.2 16.1 0.00 0.00 0.00 49 1020.3
20210919195511 25 2 1.6 16.1 0.00 0.00 0.00 51 1020.3
20210919195227 24 2 3.2 16.1 0.00 0.00 0.00 49 1020.3
20210919195023 25 2 8.0 16.1 0.00 0.00 0.00 48 1020.3
20210919194715 25 360 4.8 16.1 0.00 0.00 0.00 51 1020.4
20210919194511 25 298 6.4 16.1 0.00 0.00 0.00 50 1020.3
20210919194223 25 338 8.0 16.1 0.00 0.00 0.00 49 1020.3
20210919194019 25 12 6.4 9.7 0.00 0.00 0.00 48 1020.3
20210919193711 25 40 3.2 14.5 0.00 0.00 0.00 50 1020.3
20210919193527 25 300 1.6 14.5 0.00 0.00 0.00 48 1020.3
20210919193221 25 39 3.2 14.5 0.00 0.00 0.00 51 1020.3
20210919193014 25 346 6.4 14.5 0.00 0.00 0.00 48 1020.3
20210919192709 25 28 4.8 11.3 0.00 0.00 0.00 50 1020.3
20210919192522 25 351 3.2 14.5 0.00 0.00 0.00 50 1020.3
20210919192217 25 333 4.8 14.5 0.00 0.00 0.00 50 1020.4
20210919192010 24 46 4.8 14.5 0.00 0.00 0.00 50 1020.4
20210919191725 24 336 6.4 14.5 0.00 0.00 0.00 50 1020.4
20210919191518 25 346 4.8 12.9 0.00 0.00 0.00 49 1020.4
20210919191213 25 6 3.2 16.1 0.00 0.00 0.00 52 1020.4
20210919191025 25 25 4.8 16.1 0.00 0.00 0.00 52 1020.4
20210919190721 24 27 8.0 16.1 0.00 0.00 0.00 50 1020.4
20210919190517 25 346 4.8 16.1 0.00 0.00 0.00 50 1020.4
20210919190209 24 17 3.2 12.9 0.00 0.00 0.00 52 1020.4
20210919190025 24 289 6.4 14.5 0.00 0.00 0.00 52 1020.4
20210919185717 24 351 4.8 14.5 0.00 0.00 0.00 50 1020.4
20210919185513 24 43 6.4 16.1 0.00 0.00 0.00 50 1020.4
20210919185223 25 43 1.6 16.1 0.00 0.00 0.00 50 1020.4
20210919185020 25 43 3.2 16.1 0.00 0.00 0.00 50 1020.5
20210919184715 25 27 3.2 16.1 0.00 0.00 0.00 52 1020.5
20210919184528 24 321 1.6 16.1 0.00 0.00 0.00 54 1020.5
20210919184223 23 27 6.4 16.1 0.00 0.00 0.00 52 1020.5
20210919184015 23 6 8.0 16.1 0.00 0.00 0.00 50 1020.5
20210919183711 23 6 6.4 14.5 0.00 0.00 0.00 50 1020.5
20210919183523 24 11 6.4 14.5 0.00 0.00 0.00 51 1020.6
20210919183218 23 335 8.0 19.3 0.00 0.00 0.00 51 1020.6
20210919183011 24 360 3.2 19.3 0.00 0.00 0.00 51 1020.6
20210919182726 24 360 9.7 19.3 0.00 0.00 0.00 51 1020.7
20210919182519 24 356 8.0 19.3 0.00 0.00 0.00 51 1020.7
20210919182214 23 356 3.2 17.7 0.00 0.00 0.00 54 1020.7
20210919182048 23 1 3.2 17.7 0.00 0.00 0.00 53 1020.7
20210919181722 23 26 6.4 16.1 0.00 0.00 0.00 52 1020.7
20210919181519 23 41 8.0 16.1 0.00 0.00 0.00 51 1020.7
20210919181210 24 356 6.4 17.7 0.00 0.00 0.00 51 1020.7
20210919181026 24 337 8.0 17.7 0.00 0.00 0.00 50 1020.7
20210919180718 24 33 6.4 17.7 0.00 0.00 0.00 54 1020.7
20210919180514 24 312 1.6 14.5 0.00 0.00 0.00 54 1020.7
20210919180226 23 277 4.8 14.5 0.00 0.00 0.00 53 1020.8
20210919180022 24 346 9.7 14.5 0.00 0.00 0.00 50 1020.9
20210919175718 24 360 6.4 14.5 0.00 0.00 0.00 51 1020.9
20210919175510 24 360 6.4 14.5 0.00 0.00 0.00 53 1020.8
20210919175225 24 346 6.4 9.7 0.00 0.00 0.00 53 1020.8
20210919175018 24 93 3.2 8.0 0.00 0.00 0.00 56 1020.9
20210919174713 24 10 3.2 8.0 0.00 0.00 0.00 53 1020.9
20210919174526 24 351 4.8 8.0 0.00 0.00 0.00 55 1020.9
20210919174243 23 46 4.8 9.7 0.00 0.00 0.00 52 1020.9
20210919174014 23 43 4.8 11.3 0.00 0.00 0.00 53 1021.0
20210919173710 23 21 4.8 20.9 0.00 0.00 0.00 55 1021.0
20210919173522 23 17 6.4 20.9 0.00 0.00 0.00 56 1021.0
20210919173218 23 39 8.0 20.9 0.00 0.00 0.00 56 1021.0
20210919173010 23 3 6.4 19.3 0.00 0.00 0.00 57 1021.0
20210919172725 23 15 4.8 12.9 0.00 0.00 0.00 56 1020.9
20210919172521 23 260 4.8 12.9 0.00 0.00 0.00 57 1021.0
20210919172213 23 304 4.8 12.9 0.00 0.00 0.00 56 1021.0
20210919172009 23 351 4.8 12.9 0.00 0.00 0.00 56 1021.0
20210919171721 23 356 6.4 12.9 0.00 0.00 0.00 57 1021.0
20210919171517 23 331 6.4 12.9 0.00 0.00 0.00 56 1021.1
20210919171209 23 89 3.2 14.5 0.00 0.00 0.00 57 1021.1
20210919171025 23 63 3.2 14.5 0.00 0.00 0.00 57 1021.1
20210919170720 23 40 4.8 14.5 0.00 0.00 0.00 57 1021.1
20210919170512 23 351 8.0 16.1 0.00 0.00 0.00 55 1021.1
20210919170208 23 12 4.8 16.1 0.00 0.00 0.00 56 1021.3
20210919170020 23 25 8.0 16.1 0.00 0.00 0.00 55 1021.3
20210919165716 23 19 1.6 9.7 0.00 0.00 0.00 56 1021.3
20210919165528 23 356 3.2 9.7 0.00 0.00 0.00 59 1021.4
20210919165243 23 58 6.4 12.9 0.00 0.00 0.00 57 1021.3
20210919165015 23 351 3.2 12.9 0.00 0.00 0.00 57 1021.3
20210919164710 22 346 3.2 20.9 0.00 0.00 0.00 57 1021.3
20210919164523 22 5 4.8 20.9 0.00 0.00 0.00 59 1021.3
20210919164218 22 13 4.8 20.9 0.00 0.00 0.00 57 1021.2
20210919164032 23 8 12.9 20.9 0.00 0.00 0.00 56 1021.2
20210919163726 23 25 4.8 20.9 0.00 0.00 0.00 58 1021.2
20210919163518 23 2 3.2 20.9 0.00 0.00 0.00 58 1021.1
20210919163214 22 9 8.0 20.9 0.00 0.00 0.00 57 1021.2
20210919163031 22 30 6.4 14.5 0.00 0.00 0.00 58 1021.1
20210919162721 22 6 4.8 14.5 0.00 0.00 0.00 60 1021.1
20210919162518 22 328 6.4 16.1 0.00 0.00 0.00 59 1021.1
20210919162209 22 42 3.2 19.3 0.00 0.00 0.00 58 1021.1
20210919162026 22 42 4.8 19.3 0.00 0.00 0.00 59 1021.1
20210919161717 22 10 9.7 20.9 0.00 0.00 0.00 60 1021.1
20210919161514 22 18 3.2 20.9 0.00 0.00 0.00 59 1021.1
20210919161209 22 8 4.8 20.9 0.00 0.00 0.00 60 1021.2
20210919161021 22 346 8.0 20.9 0.00 0.00 0.00 57 1021.1
20210919160717 22 328 8.0 16.1 0.00 0.00 0.00 58 1021.1
20210919160509 22 48 4.8 12.9 0.00 0.00 0.00 61 1021.2
20210919160225 22 14 3.2 12.9 0.00 0.00 0.00 62 1021.2
20210919160017 22 37 3.2 12.9 0.00 0.00 0.00 60 1021.1
20210919155713 22 1 4.8 12.9 0.00 0.00 0.00 61 1021.2
20210919155525 22 35 4.8 12.9 0.00 0.00 0.00 61 1021.2
20210919155221 22 58 3.2 11.3 0.00 0.00 0.00 63 1021.3
20210919155013 22 48 4.8 11.3 0.00 0.00 0.00 61 1021.3
20210919154749 22 2 4.8 17.7 0.00 0.00 0.00 62 1021.2
20210919154541 22 356 4.8 17.7 0.00 0.00 0.00 62 1021.2
20210919154215 21 35 6.4 19.3 0.00 0.00 0.00 62 1021.2
20210919154028 21 356 11.3 19.3 0.00 0.00 0.00 61 1021.2
20210919153723 21 356 8.0 19.3 0.00 0.00 0.00 63 1021.2
20210919153519 21 19 8.0 16.1 0.00 0.00 0.00 61 1021.2
20210919153211 21 6 6.4 16.1 0.00 0.00 0.00 61 1021.1
20210919153027 21 2 4.8 16.1 0.00 0.00 0.00 64 1021.2
20210919152719 21 13 4.8 17.7 0.00 0.00 0.00 64 1021.2
20210919152536 21 356 11.3 17.7 0.00 0.00 0.00 62 1021.2
20210919152227 21 356 8.0 19.3 0.00 0.00 0.00 63 1021.2
20210919152023 21 331 9.7 19.3 0.00 0.00 0.00 62 1021.2
20210919151715 21 17 4.8 24.1 0.00 0.00 0.00 65 1021.1
20210919151531 21 261 11.3 24.1 0.00 0.00 0.00 62 1021.1
20210919151221 21 1 6.4 24.1 0.00 0.00 0.00 62 1021.1
20210919151018 21 351 9.7 24.1 0.00 0.00 0.00 62 1021.1
20210919150713 21 356 4.8 19.3 0.00 0.00 0.00 63 1021.0
20210919150525 21 7 3.2 19.3 0.00 0.00 0.00 64 1021.0
20210919150221 21 46 8.0 19.3 0.00 0.00 0.00 65 1021.0
20210919150014 21 346 9.7 19.3 0.00 0.00 0.00 62 1021.0
20210919145709 21 12 6.4 17.7 0.00 0.00 0.00 63 1021.0
20210919145521 21 27 9.7 17.7 0.00 0.00 0.00 64 1021.0
20210919145217 21 3 6.4 19.3 0.00 0.00 0.00 64 1020.9
20210919145010 21 6 8.0 19.3 0.00 0.00 0.00 63 1021.0
20210919144725 20 4 6.4 24.1 0.00 0.00 0.00 64 1020.9
20210919144517 20 356 8.0 24.1 0.00 0.00 0.00 64 1021.0
20210919144213 20 10 11.3 24.1 0.00 0.00 0.00 62 1021.0
20210919144009 21 28 8.0 17.7 0.00 0.00 0.00 64 1021.0
20210919143721 20 22 6.4 17.7 0.00 0.00 0.00 64 1021.0
20210919143517 20 33 9.7 17.7 0.00 0.00 0.00 64 1021.1
20210919143208 20 346 8.0 16.1 0.00 0.00 0.00 64 1021.1
20210919143025 20 23 9.7 17.7 0.00 0.00 0.00 64 1021.1
20210919142716 20 27 6.4 17.7 0.00 0.00 0.00 65 1021.2
20210919142513 20 40 8.0 17.7 0.00 0.00 0.00 65 1021.1
20210919142208 20 7 8.0 16.1 0.00 0.00 0.00 63 1021.1
20210919142021 20 25 3.2 12.9 0.00 0.00 0.00 66 1021.1
20210919141716 20 29 4.8 14.5 0.00 0.00 0.00 66 1021.1
20210919141508 20 29 6.4 14.5 0.00 0.00 0.00 65 1021.1
20210919141224 20 13 8.0 17.7 0.00 0.00 0.00 66 1021.1
20210919141017 20 16 8.0 17.7 0.00 0.00 0.00 66 1021.1
20210919140732 20 7 4.8 17.7 0.00 0.00 0.00 67 1021.1
20210919140524 20 33 9.7 17.7 0.00 0.00 0.00 66 1021.1
20210919140219 20 328 6.4 12.9 0.00 0.00 0.00 66 1021.1
20210919140012 20 17 3.2 12.9 0.00 0.00 0.00 68 1021.1
20210919135727 20 8 3.2 17.7 0.00 0.00 0.00 67 1021.1
20210919135520 20 351 4.8 17.7 0.00 0.00 0.00 67 1021.1
20210919135215 20 360 8.0 17.7 0.00 0.00 0.00 67 1021.1
20210919135011 20 19 8.0 16.1 0.00 0.00 0.00 68 1021.1
20210919134723 19 1 6.4 9.7 0.00 0.00 0.00 68 1021.0
20210919134519 19 50 3.2 9.7 0.00 0.00 0.00 70 1021.0
20210919134210 19 38 4.8 9.7 0.00 0.00 0.00 69 1020.9
20210919134027 19 21 4.8 9.7 0.00 0.00 0.00 68 1020.9
20210919133718 19 13 4.8 16.1 0.00 0.00 0.00 70 1021.0
20210919133515 19 23 3.2 16.1 0.00 0.00 0.00 70 1020.9
20210919133210 19 22 4.8 16.1 0.00 0.00 0.00 69 1020.9
20210919133022 19 20 8.0 16.1 0.00 0.00 0.00 69 1020.8
20210919132718 19 8 4.8 9.7 0.00 0.00 0.00 71 1020.8
20210919132510 19 337 3.2 9.7 0.00 0.00 0.00 71 1020.8
20210919132226 18 346 4.8 9.7 0.00 0.00 0.00 70 1020.7
20210919132039 18 356 6.4 9.7 0.00 0.00 0.00 70 1020.7
20210919131713 18 351 4.8 8.0 0.00 0.00 0.00 70 1020.7
20210919131526 18 6 4.8 8.0 0.00 0.00 0.00 71 1020.7
20210919131221 18 356 4.8 8.0 0.00 0.00 0.00 72 1020.7
20210919131014 18 360 3.2 8.0 0.00 0.00 0.00 73 1020.7
20210919130709 18 14 3.2 8.0 0.00 0.00 0.00 73 1020.6
20210919130522 18 10 3.2 8.0 0.00 0.00 0.00 73 1020.7
20210919130217 18 1 4.8 6.4 0.00 0.00 0.00 74 1020.6
20210919130013 18 360 1.6 4.8 0.00 0.00 0.00 75 1020.6
20210919125725 18 360 3.2 4.8 0.00 0.00 0.00 74 1020.6
20210919125521 18 360 1.6 4.8 0.00 0.00 0.00 75 1020.6
20210919125212 18 360 3.2 6.4 0.00 0.00 0.00 75 1020.6
20210919125009 18 360 3.2 6.4 0.00 0.00 0.00 75 1020.5
20210919124720 18 356 3.2 12.9 0.00 0.00 0.00 75 1020.5
20210919124516 18 346 3.2 12.9 0.00 0.00 0.00 75 1020.5
20210919124212 18 356 4.8 12.9 0.00 0.00 0.00 75 1020.4
20210919124024 18 351 6.4 12.9 0.00 0.00 0.00 75 1020.4
20210919123719 17 351 3.2 8.0 0.00 0.00 0.00 78 1020.4
20210919123512 17 351 4.8 8.0 0.00 0.00 0.00 78 1020.4
20210919123227 17 339 3.2 6.4 0.00 0.00 0.00 79 1020.4
20210919123020 17 356 3.2 6.4 0.00 0.00 0.00 79 1020.4
20210919122715 17 356 3.2 6.4 0.00 0.00 0.00 80 1020.4
20210919122528 17 356 4.8 6.4 0.00 0.00 0.00 80 1020.4
20210919122223 17 2 3.2 6.4 0.00 0.00 0.00 81 1020.3
20210919122015 17 1 3.2 4.8 0.00 0.00 0.00 81 1020.3
20210919121711 17 1 3.2 4.8 0.00 0.00 0.00 82 1020.3
20210919121527 17 1 3.2 4.8 0.00 0.00 0.00 82 1020.3
20210919121218 17 1 3.2 4.8 0.00 0.00 0.00 83 1020.3
20210919121013 17 1 1.6 4.8 0.00 0.00 0.00 84 1020.3
20210919120725 16 1 3.2 4.8 0.00 0.00 0.00 84 1020.3
20210919120521 16 1 1.6 4.8 0.00 0.00 0.00 84 1020.3
20210919120233 16 1 3.2 4.8 0.00 0.00 0.00 85 1020.2
20210919120008 16 1 3.2 4.8 0.00 0.00 0.00 86 1020.2
20210919115720 16 1 1.6 6.4 0.00 0.00 0.00 86 1020.0
20210919115516 16 1 1.6 8.0 0.00 0.00 0.00 87 1020.0
20210919115212 16 1 3.2 8.0 0.00 0.00 0.00 87 1020.1
20210919115045 16 1 3.2 8.0 0.00 0.00 0.00 87 1020.1
20210919114719 16 1 3.2 8.0 0.00 0.00 0.00 88 1020.1
20210919114511 16 1 4.8 8.0 0.00 0.00 0.00 88 1020.0
20210919114227 15 2 3.2 6.4 0.00 0.00 0.00 89 1020.1
20210919114019 15 2 3.2 8.0 0.00 0.00 0.00 89 1020.1
20210919113714 15 2 3.2 8.0 0.00 0.00 0.00 90 1020.1
20210919113527 15 2 4.8 8.0 0.00 0.00 0.00 91 1020.1
20210919113222 15 2 3.2 8.0 0.00 0.00 0.00 92 1019.9
20210919113036 15 2 3.2 6.4 0.00 0.00 0.00 92 1019.9
20210919112710 15 2 3.2 4.8 0.00 0.00 0.00 92 1019.8
20210919112522 15 2 1.6 4.8 0.00 0.00 0.00 92 1019.7
20210919112218 15 2 1.6 3.2 0.00 0.00 0.00 92 1019.7
20210919112031 15 2 1.6 3.2 0.00 0.00 0.00 92 1019.7
20210919111726 15 2 1.6 3.2 0.00 0.00 0.00 92 1019.7
20210919111522 15 2 1.6 3.2 0.00 0.00 0.00 92 1019.6
20210919111214 15 2 1.6 3.2 0.00 0.00 0.00 92 1019.6
20210919111010 15 2 1.6 3.2 0.00 0.00 0.00 92 1019.5
20210919110742 15 2 1.6 3.2 0.00 0.00 0.00 92 1019.5
20210919110517 15 2 0.0 1.6 0.00 0.00 0.00 92 1019.4
20210919110208 15 2 0.0 1.6 0.00 0.00 0.00 92 1019.4
20210919110025 15 2 0.0 1.6 0.00 0.00 0.00 92 1019.5
20210919105716 15 2 0.0 1.6 0.00 0.00 0.00 92 1019.4
20210919105512 15 2 0.0 1.6 0.00 0.00 0.00 92 1019.4
20210919105227 15 2 0.0 1.6 0.00 0.00 0.00 92 1019.4
20210919105020 15 2 0.0 1.6 0.00 0.00 0.00 92 1019.4
20210919104715 15 2 0.0 0.0 0.00 0.00 0.00 92 1019.4
20210919104549 15 2 0.0 0.0 0.00 0.00 0.00 92 1019.4
20210919104224 15 2 0.0 0.0 0.00 0.00 0.00 92 1019.4
20210919104016 15 2 0.0 0.0 0.00 0.00 0.00 92 1019.4
20210919103712 15 2 0.0 1.6 0.00 0.00 0.00 92 1019.3
20210919103524 15 2 0.0 1.6 0.00 0.00 0.00 92 1019.2
20210919103219 15 2 0.0 1.6 0.00 0.00 0.00 92 1019.2
20210919103012 15 2 0.0 3.2 0.00 0.00 0.00 92 1019.2
20210919102727 15 2 0.0 3.2 0.00 0.00 0.00 92 1019.2
20210919102519 15 2 0.0 3.2 0.00 0.00 0.00 92 1019.1
20210919102214 15 2 1.6 3.2 0.00 0.00 0.00 92 1019.1
20210919102011 15 2 1.6 3.2 0.00 0.00 0.00 92 1019.0
20210919101723 15 2 1.6 3.2 0.00 0.00 0.00 92 1019.0
20210919101540 15 2 1.6 3.2 0.00 0.00 0.00 92 1019.0
20210919101210 15 2 0.0 1.6 0.00 0.00 0.00 92 1018.9
20210919101026 15 2 0.0 1.6 0.00 0.00 0.00 92 1018.9
20210919100717 15 2 0.0 1.6 0.00 0.00 0.00 92 1018.9
20210919100514 15 2 0.0 3.2 0.00 0.00 0.00 92 1018.9
20210919100208 15 2 0.0 3.2 0.00 0.00 0.00 92 1018.8
20210919100021 16 2 0.0 3.2 0.00 0.00 0.00 92 1018.8
20210919095716 16 2 1.6 1.6 0.00 0.00 0.00 92 1018.8
20210919095509 16 2 0.0 1.6 0.00 0.00 0.00 92 1018.8
20210919095224 15 2 0.0 1.6 0.00 0.00 0.00 91 1018.8
20210919095017 16 2 0.0 1.6 0.00 0.00 0.00 91 1018.8
20210919094712 16 2 0.0 0.0 0.00 0.00 0.00 91 1018.8
20210919094524 16 2 0.0 1.6 0.00 0.00 0.00 91 1018.8
20210919094220 16 2 0.0 3.2 0.00 0.00 0.00 91 1018.8
20210919094012 16 2 0.0 3.2 0.00 0.00 0.00 91 1018.8
20210919093728 16 2 0.0 3.2 0.00 0.00 0.00 90 1018.8
20210919093520 16 2 1.6 3.2 0.00 0.00 0.00 90 1018.8
20210919093216 16 2 0.0 1.6 0.00 0.00 0.00 90 1018.8
20210919093012 16 2 0.0 1.6 0.00 0.00 0.00 90 1018.8
20210919092724 16 2 0.0 1.6 0.00 0.00 0.00 90 1018.7
20210919092520 16 2 0.0 1.6 0.00 0.00 0.00 90 1018.8
20210919092211 16 2 0.0 1.6 0.00 0.00 0.00 90 1018.8
20210919092048 16 2 0.0 1.6 0.00 0.00 0.00 91 1018.7
20210919091719 16 2 1.6 1.6 0.00 0.00 0.00 90 1018.6
20210919091515 16 2 0.0 0.0 0.00 0.00 0.00 90 1018.6
20210919091210 16 2 0.0 0.0 0.00 0.00 0.00 89 1018.5
20210919091022 16 2 0.0 0.0 0.00 0.00 0.00 89 1018.5
20210919090717 16 2 0.0 0.0 0.00 0.00 0.00 89 1018.5
20210919090509 17 2 0.0 0.0 0.00 0.00 0.00 89 1018.5
20210919090226 17 2 0.0 0.0 0.00 0.00 0.00 89 1018.4
20210919090017 17 2 0.0 0.0 0.00 0.00 0.00 89 1018.4
20210919085713 17 2 0.0 0.0 0.00 0.00 0.00 89 1018.3
20210919085525 17 2 0.0 1.6 0.00 0.00 0.00 89 1018.3
20210919085221 17 2 0.0 1.6 0.00 0.00 0.00 89 1018.3
20210919085013 17 2 0.0 1.6 0.00 0.00 0.00 88 1018.2
20210919084708 17 2 0.0 3.2 0.00 0.00 0.00 88 1018.3
20210919084521 17 2 0.0 3.2 0.00 0.00 0.00 88 1018.2
20210919084217 17 2 1.6 3.2 0.00 0.00 0.00 88 1018.2
20210919084013 17 2 1.6 3.2 0.00 0.00 0.00 88 1018.2
20210919083722 17 2 1.6 3.2 0.00 0.00 0.00 88 1018.2
20210919083519 17 2 1.6 3.2 0.00 0.00 0.00 88 1018.1
20210919083210 17 2 1.6 4.8 0.00 0.00 0.00 88 1018.1
20210919083026 17 2 1.6 4.8 0.00 0.00 0.00 88 1018.1
20210919082738 17 2 3.2 4.8 0.00 0.00 0.00 88 1018.2
20210919082534 17 2 3.2 6.4 0.00 0.00 0.00 88 1018.1
20210919082225 18 2 3.2 6.4 0.00 0.00 0.00 88 1018.1
20210919082021 18 2 3.2 6.4 0.00 0.00 0.00 88 1018.1
20210919081717 18 2 3.2 6.4 0.00 0.00 0.00 88 1018.0
20210919081549 18 2 3.2 9.7 0.00 0.00 0.00 88 1018.0
20210919081241 18 2 1.6 9.7 0.00 0.00 0.00 89 1018.0
20210919081016 18 2 3.2 9.7 0.00 0.00 0.00 89 1018.1
20210919080711 18 346 3.2 8.0 0.00 0.00 0.00 89 1018.0
20210919080524 18 346 1.6 3.2 0.00 0.00 0.00 89 1018.0
20210919080220 18 346 1.6 6.4 0.00 0.00 0.00 89 1018.0
20210919080012 18 346 1.6 6.4 0.00 0.00 0.00 89 1018.1
20210919075728 18 346 3.2 6.4 0.00 0.00 0.00 89 1018.0
20210919075520 18 346 3.2 6.4 0.00 0.00 0.00 88 1018.0
20210919075215 18 2 1.6 4.8 0.00 0.00 0.00 89 1018.0
20210919075028 18 2 1.6 4.8 0.00 0.00 0.00 88 1017.9
20210919074723 18 2 1.6 4.8 0.00 0.00 0.00 88 1017.9
20210919074515 18 2 3.2 4.8 0.00 0.00 0.00 88 1017.9
20210919074211 18 2 3.2 4.8 0.00 0.00 0.00 89 1017.9
20210919074027 18 2 1.6 3.2 0.00 0.00 0.00 89 1017.8
20210919073738 18 2 1.6 4.8 0.00 0.00 0.00 88 1017.8
20210919073513 18 2 1.6 4.8 0.00 0.00 0.00 88 1017.7
20210919073224 18 2 3.2 4.8 0.00 0.00 0.00 88 1017.8
20210919073021 18 2 3.2 4.8 0.00 0.00 0.00 88 1017.7
20210919072713 18 2 3.2 4.8 0.00 0.00 0.00 87 1017.7
20210919072509 18 2 3.2 4.8 0.00 0.00 0.00 87 1017.8
20210919072220 18 2 3.2 4.8 0.00 0.00 0.00 87 1017.8
20210919072017 18 2 3.2 3.2 0.00 0.00 0.00 87 1017.8
20210919071712 19 2 1.6 3.2 0.00 0.00 0.00 87 1017.7
20210919071525 19 2 1.6 3.2 0.00 0.00 0.00 86 1017.9
20210919071241 19 2 1.6 3.2 0.00 0.00 0.00 86 1017.8
20210919071012 19 2 1.6 3.2 0.00 0.00 0.00 85 1017.8
20210919070708 19 2 1.6 6.4 0.00 0.00 0.00 85 1017.8
20210919070520 19 2 1.6 6.4 0.00 0.00 0.00 85 1017.8
20210919070216 20 2 1.6 6.4 0.00 0.00 0.00 85 1017.8
20210919070028 20 2 3.2 8.0 0.00 0.00 0.00 84 1017.8
20210919065724 20 11 3.2 14.5 0.00 0.00 0.00 84 1017.8
20210919065515 20 11 4.8 14.5 0.00 0.00 0.00 84 1017.7
20210919065211 20 40 4.8 16.1 0.00 0.00 0.00 85 1017.8
20210919065024 20 9 4.8 16.1 0.00 0.00 0.00 85 1017.8
20210919064719 20 10 6.4 16.1 0.00 0.00 0.00 85 1017.7
20210919064515 20 11 4.8 12.9 0.00 0.00 0.00 85 1017.7
20210919064227 20 8 6.4 12.9 0.00 0.00 0.00 85 1017.8
20210919064023 20 1 4.8 12.9 0.00 0.00 0.00 85 1017.7
20210919063715 20 360 4.8 12.9 0.00 0.00 0.00 85 1017.8
20210919063511 20 360 4.8 12.9 0.00 0.00 0.00 84 1017.8
20210919063223 20 2 6.4 16.1 0.00 0.00 0.00 85 1017.7
20210919063019 20 6 6.4 16.1 0.00 0.00 0.00 85 1017.7
20210919062714 20 2 8.0 16.1 0.00 0.00 0.00 85 1017.7
20210919062527 20 10 8.0 16.1 0.00 0.00 0.00 85 1017.8
20210919062222 20 20 6.4 14.5 0.00 0.00 0.00 85 1017.8
20210919062014 20 356 8.0 14.5 0.00 0.00 0.00 85 1017.7
20210919061710 20 356 4.8 6.4 0.00 0.00 0.00 85 1017.7
20210919061522 20 356 4.8 6.4 0.00 0.00 0.00 85 1017.7
20210919061217 20 356 4.8 6.4 0.00 0.00 0.00 84 1017.7
20210919061009 20 356 4.8 6.4 0.00 0.00 0.00 85 1017.7
20210919060725 20 356 3.2 4.8 0.00 0.00 0.00 86 1017.7
20210919060518 20 356 3.2 4.8 0.00 0.00 0.00 86 1017.7
20210919060213 20 356 3.2 4.8 0.00 0.00 0.00 85 1017.7
20210919060010 20 356 3.2 4.8 0.00 0.00 0.00 85 1017.7
20210919055721 20 356 1.6 6.4 0.00 0.00 0.00 85 1017.7
20210919055538 20 356 1.6 6.4 0.00 0.00 0.00 84 1017.6
20210919055208 20 356 3.2 8.0 0.00 0.00 0.00 85 1017.6
20210919055025 20 356 3.2 8.0 0.00 0.00 0.00 85 1017.5
20210919054716 21 356 3.2 8.0 0.00 0.00 0.00 84 1017.5
20210919054512 21 356 4.8 9.7 0.00 0.00 0.00 84 1017.5
20210919054208 21 356 4.8 9.7 0.00 0.00 0.00 84 1017.5
20210919054021 21 356 3.2 9.7 0.00 0.00 0.00 84 1017.5
20210919053716 21 360 4.8 8.0 0.00 0.00 0.00 84 1017.5
20210919053509 21 2 3.2 8.0 0.00 0.00 0.00 84 1017.5
20210919053224 21 2 3.2 8.0 0.00 0.00 0.00 83 1017.5
20210919053016 21 2 4.8 8.0 0.00 0.00 0.00 82 1017.6
20210919052712 21 2 3.2 8.0 0.00 0.00 0.00 82 1017.6
20210919052525 21 356 3.2 4.8 0.00 0.00 0.00 82 1017.6
20210919052219 21 356 1.6 4.8 0.00 0.00 0.00 82 1017.6
20210919052011 22 356 3.2 4.8 0.00 0.00 0.00 81 1017.6
20210919051727 22 356 1.6 4.8 0.00 0.00 0.00 81 1017.6
20210919051519 22 356 1.6 6.4 0.00 0.00 0.00 81 1017.6
20210919051235 22 356 3.2 6.4 0.00 0.00 0.00 80 1017.6
20210919051010 22 356 1.6 9.7 0.00 0.00 0.00 80 1017.6
20210919050722 22 356 3.2 9.7 0.00 0.00 0.00 80 1017.5
20210919050518 22 356 4.8 9.7 0.00 0.00 0.00 80 1017.6
20210919050210 22 356 4.8 9.7 0.00 0.00 0.00 80 1017.5
20210919050026 22 3 1.6 8.0 0.00 0.00 0.00 80 1017.6